Weather History for KHSV - February, 2013

Change the Weather History Date:

Thursday, February 14, 2013

  Actual Average Record
Temperature  
Mean Temperature 46 °F 45 °F  
Max Temperature 59 °F 56 °F 77 °F (1926)
Min Temperature 32 °F 35 °F 9 °F (1960)
Degree Days  
Heating Degree Days 19 20  
Month to date heating degree days 268 295  
Since 1 July heating degree days 1974 2205  
Cooling Degree Days 0 0  
Month to date cooling degree days 0 0  
Year to date cooling degree days 6 0  
Moisture  
Dew Point 36 °F    
Average Humidity 70    
Maximum Humidity 96    
Minimum Humidity 43    
Precipitation  
Precipitation 0.00 in 0.17 in 1.49 in (1922)
Month to date precipitation 1.53 2.35  
Year to date precipitation 10.12 7.24  
Snow  
Snow 0.00 in - - ()
Month to date snowfall T  
Since 1 July snowfall 0.7  
Snow Depth 0.00 in    
Sea Level Pressure  
Sea Level Pressure 30.06 in    
Wind  
Wind Speed 4 mph (SSW)    
Max Wind Speed 13 mph    
Max Gust Speed 17 mph    
Visibility 9 miles    
Events      
T = Trace of Precipitation, MM = Missing Value Source: NWS Daily Summary

Daily Weather History Graph

Daily Weather History Graph

Search for Another Location

Airport or City:

Trip Planner

Search our weather history database for the weather conditions in past years. The results will help you decide how hot, cold, wet, or windy it might be!

Date:

Astronomy

Feb. 14, 2013 Rise Set
Actual Time 6:33 AM CST 5:29 PM CST
Civil Twilight 6:07 AM CST 5:55 PM CST
Nautical Twilight 5:38 AM CST 6:25 PM CST
Astronomical Twilight 5:08 AM CST 6:54 PM CST
Moon 8:49 AM CST (2/14) 10:16 PM CST (2/14)
Length of Visible Light 11h 47m
Length of Day
10h 56m
Waxing Crescent, 22% of the Moon is Illuminated
Feb 14
Waxing Crescent
Feb 17
First Quarter
Feb 25
Full
Mar 4
Last Quarter
Mar 11
New

Hourly Weather History & Observations

Time (CST) Temp. Windchill Dew Point Humidity Pressure Visibility Wind Dir Wind Speed Gust Speed Precip Events Conditions
12:53 AM 42.1 °F 39.2 °F 36.0 °F 79% 30.05 in 10.0 mi NW 4.6 mph - N/A   Overcast
1:53 AM 41.0 °F - 36.0 °F 82% 30.05 in 10.0 mi Calm Calm - N/A   Mostly Cloudy
2:04 AM 39.2 °F - 35.6 °F 87% 30.04 in 10.0 mi Calm Calm - N/A   Scattered Clouds
2:53 AM 39.0 °F - 35.1 °F 86% 30.05 in 10.0 mi Calm Calm - N/A   Partly Cloudy
3:53 AM 35.6 °F - 33.8 °F 93% 30.04 in 8.0 mi Calm Calm - N/A   Clear
4:53 AM 35.1 °F - 33.1 °F 92% 30.04 in 5.0 mi Calm Calm - N/A   Clear
5:53 AM 33.1 °F 28.7 °F 32.0 °F 96% 30.07 in 3.0 mi SSE 4.6 mph - N/A   Partly Cloudy
6:53 AM 33.1 °F 30.0 °F 32.0 °F 96% 30.10 in 4.0 mi SSW 3.5 mph - N/A   Scattered Clouds
7:53 AM 37.0 °F 34.5 °F 36.0 °F 96% 30.11 in 5.0 mi South 3.5 mph - N/A   Partly Cloudy
8:53 AM 42.1 °F 40.2 °F 37.9 °F 85% 30.09 in 10.0 mi SSW 3.5 mph - N/A   Clear
9:53 AM 48.9 °F - 39.0 °F 69% 30.09 in 10.0 mi WSW 4.6 mph - N/A   Partly Cloudy
10:53 AM 51.1 °F - 39.0 °F 63% 30.09 in 10.0 mi WNW 6.9 mph - N/A   Partly Cloudy
11:53 AM 53.1 °F - 37.9 °F 57% 30.07 in 10.0 mi Variable 5.8 mph - N/A   Partly Cloudy
12:53 PM 55.0 °F - 37.0 °F 51% 30.05 in 10.0 mi SW 5.8 mph - N/A   Partly Cloudy
1:53 PM 57.0 °F - 37.0 °F 47% 30.03 in 10.0 mi SSW 8.1 mph - N/A   Partly Cloudy
2:53 PM 57.9 °F - 36.0 °F 44% 30.03 in 10.0 mi SW 8.1 mph - N/A   Partly Cloudy
3:53 PM 57.9 °F - 36.0 °F 44% 30.03 in 10.0 mi SSW 8.1 mph - N/A   Partly Cloudy
4:53 PM 55.9 °F - 37.9 °F 51% 30.04 in 10.0 mi SSW 5.8 mph - N/A   Partly Cloudy
5:53 PM 50.0 °F - 39.9 °F 68% 30.05 in 10.0 mi SSW 3.5 mph - N/A   Partly Cloudy
6:53 PM 48.9 °F - 37.9 °F 66% 30.05 in 10.0 mi SSW 4.6 mph - N/A   Clear
7:53 PM 46.0 °F 43.9 °F 37.9 °F 73% 30.06 in 10.0 mi SSW 4.6 mph - N/A   Clear
8:53 PM 46.0 °F 43.9 °F 36.0 °F 68% 30.07 in 10.0 mi SW 4.6 mph - N/A   Clear
9:53 PM 46.9 °F - 36.0 °F 66% 30.07 in 10.0 mi Calm Calm - N/A   Clear
10:53 PM 42.1 °F 40.2 °F 36.0 °F 79% 30.07 in 10.0 mi SE 3.5 mph - N/A   Clear
11:53 PM 39.9 °F 36.7 °F 36.0 °F 86% 30.07 in 10.0 mi ESE 4.6 mph - N/A   Clear